Regional Weather Roundup
Issued by NWS

Home | Current Version | Previous Version | Text Only | Print | Product List | Glossary Off
Versions: 1 2 3 4 5 6 7 8 9 10 11 12 13 14 15 16 17 18 19 20 21 22 23 24 25 26 27 28 29 30 31 32 33 34 35 36 37 38 39 40 41 42 43 44 45 46 47 48 49 50

000
ASUS45 KBOU 022107
RWRCO

WEATHER ROUNDUP FOR COLORADO
NATIONAL WEATHER SERVICE DENVER/BOULDER CO
300 PM MDT WED SEP 02 2015

NOTE: "FAIR" INDICATES FEW OR NO CLOUDS BELOW 12000 FEET WITH NO
SIGNIFICANT WEATHER AND/OR OBSTRUCTIONS TO VISIBILITY.

COZ001>005-013-030-031-022200-
...NORTHWEST COLORADO...

CITY           SKY/WX    TMP DP  RH WIND       PRES   REMARKS
CRAIG          LGT RAIN  68  48  48 S15G38    30.19R
HAYDEN         NOT AVBL
MEEKER         CLOUDY    79  44  28 SW14      30.15F
MOUNT WERNER   NOT AVBL
STEAMBOAT SPGS PTSUNNY   76  43  31 E3        30.18F
WALDEN         CLOUDY    72  32  23 S15G21    30.28F
$$

COZ006>008-011-022200-
...WEST CENTRAL VALLEYS...

CITY           SKY/WX    TMP DP  RH WIND       PRES   REMARKS
GRAND JUNCTION FAIR      84  49  29 W8        30.06F
MONTROSE       FAIR      84  46  26 SE10      30.14F
EAGLE          NOT AVBL
RIFLE          FAIR      80  50  34 S10       30.11F
DELTA          FAIR      89  44  20 CALM      30.08F HAZE
NUCLA          FAIR      86  37  17 SW16G23   30.17F
$$

COZ017>023-064>068-022200-
...SOUTHWEST COLORADO...

CITY           SKY/WX    TMP DP  RH WIND       PRES   REMARKS
DURANGO        PTSUNNY   79  43  27 VRB7      30.22F
CORTEZ         FAIR      86  47  25 S13G22    30.16F
PAGOSA SPRINGS CLOUDY    76  37  25 W5        30.29F
TELLURIDE      PTSUNNY   68  41  37 S13G18    30.40S
WOLF CREEK PAS NOT AVBL
$$

COZ009-010-012-014-032>034-037-058>063-022200-
...CENTRAL COLORADO...

CITY           SKY/WX    TMP DP  RH WIND       PRES   REMARKS
ASPEN          FAIR      74  40  29 NW7       30.27F
BUENA VISTA    PTSUNNY   75  33  20 SW16G23   30.27F
COPPER MTN     PTSUNNY   59  34  38 W17G23    30.60F
BERTHOUD PASS  CLOUDY    52  39  62 W18G30    30.64F
COTTONWOOD PAS FAIR      70  32  24 NW7       30.43F
GUNNISON       FAIR      73  39  29 W5        30.30F
KREMMLING      FAIR      77  36  22 SW6G18    30.24F
LEADVILLE      PTSUNNY   62  36  37 S5        30.42F
MONARCH PASS   FAIR      57  32  38 SW25G33   30.69F
SALIDA         FAIR      84  28  13 W6        30.29F
SUNLIGHT       FAIR      64  45  48 CALM      30.53F
WILKERSON PASS FAIR      64  32  29 SW6       30.56F
$$

COZ069>075-022200-
...SAN LUIS VALLEY/SANGRE DE CRISTO MOUNTAINS...

CITY           SKY/WX    TMP DP  RH WIND       PRES   REMARKS
ALAMOSA        FAIR      79  40  24 VRB7      30.25F
LA VETA PASS   NOT AVBL
SAGUACHE       FAIR      72  43  35 N5        30.30F
$$

COZ035-036-038>040-022200-
...NORTHERN COLORADO FRONT RANGE...

CITY           SKY/WX    TMP DP  RH WIND       PRES   REMARKS
DENVER INTL AP FAIR      90  33  13 E9        30.04F
DMNS CITY PARK   N/A     90  34  13 NE5G13    30.03F
AURORA         MOSUNNY   89  33  13 S10       30.07F
FRONT RANGE AP NOT AVBL
ERIE MUNI ARPT FAIR      90  33  13 CALM      30.02F
BOULDER MUN AP FAIR      90  36  14 SE5       30.01F
CENTENNIAL     FAIR      86  34  15 CALM      30.09F
BROOMFIELD     PTSUNNY   86  37  17 E7        30.07F
FORT COLLINS   FAIR      88  43  20 SW9       29.99F
LONGMONT       FAIR      94  38  14 E10       30.02F
$$

COZ041-046-047-076>085-087-088-022200-
...PIKES PEAK/PALMER DIVIDE AND SOUTHERN FOOTHILLS...

CITY           SKY/WX    TMP DP  RH WIND       PRES   REMARKS
COLO. SPRINGS  FAIR      85  35  16 E12G21    30.12F
A. F. ACADEMY  PTSUNNY   83  35  17 NE10      30.13F
ELLICOTT       FAIR     N/A N/A N/A VRB5      30.11F
FALCON         CLOUDY    85  33  15 MISG      30.19F
FORT CARSON    FAIR      88  41  19 VRB3      30.09F
LIMON          FAIR      88  40  18 NW12      30.06F
MONUMENT HILL  FAIR      77  34  20 E5        30.20F
TRINIDAD       FAIR      83  43  24 NW24G35   30.10F
$$

COZ042>045-048>051-090-091-022200-
...NORTHEAST COLORADO...

CITY           SKY/WX    TMP DP  RH WIND       PRES   REMARKS
GREELEY ARPT   FAIR      91  37  15 W3        29.99F
AKRON          FAIR      90  39  16 VRB5      29.99F
BURLINGTON     FAIR      93  50  23 S8        29.96F
WRAY           CLOUDY    98  40  13 SE15G30   29.91F
STERLING       NOT AVBL
HOLYOKE        FAIR      95  54  24 SW5       29.92F
FORT MORGAN    FAIR      92  39  15 SE10      29.99F
$$

COZ086-089-092>099-022200-
...SOUTHEAST COLORADO...

CITY           SKY/WX    TMP DP  RH WIND       PRES   REMARKS
PUEBLO         FAIR      96  39  13 VRB7      29.99F
LA JUNTA       FAIR      97  38  13 VRB5      29.96F
LAMAR          FAIR      96  45  17 W5        29.91F
SPRINGFIELD      N/A     92  44  19 E3        29.97F
$$



USA.gov is the U.S. government's official web portal to all federal, state and local government web resources and services.